Visibility
15.0 15.0 15.0 15.0 15.0 15.0 15.0 15.0 15.0 11.8 8.5 11.1 14.6 8.3 8.3 15.0 15.0 15.0 15.0 15.0 15.0 15.0 15.0 15.0 15.0 15.0 15.0 15.0 15.0 15.0 15.0 15.0 15.0 13.7 13.9 15.0 15.0 15.0 15.0 15.0 15.0 15.0 15.0 15.0 15.0 15.0 15.0
15.0 15.0 15.0 15.0 15.0 15.0 15.0 15.0 15.0 14.4 5.9 7.8 7.5 9.5 11.6 14.4 15.0 15.0 15.0 15.0 15.0 15.0 15.0 15.0 15.0 15.0 15.0 15.0 15.0 15.0 15.0 15.0 15.0 15.0 15.0 13.7 15.0 15.0 15.0 15.0 15.0 15.0 15.0 15.0 15.0 15.0 15.0
15.0 15.0 15.0 15.0 15.0 15.0 15.0 15.0 15.0 15.0 15.0 5.7 14.5 7.5 15.0 11.2 12.8 15.0 15.0 15.0 15.0 15.0 15.0 15.0 15.0 15.0 3.8 15.0 15.0 15.0 15.0 15.0 15.0 15.0 15.0 15.0 12.5 15.0 15.0 15.0 15.0 15.0 15.0 15.0 15.0 15.0 15.0
15.0 15.0 15.0 15.0 15.0 15.0 15.0 15.0 15.0 15.0 15.0 15.0 4.6 6.5 13.8 9.4 10.0 15.0 15.0 15.0 15.0 15.0 15.0 15.0 15.0 15.0 15.0 15.0 15.0 15.0 15.0 15.0 15.0 15.0 15.0 15.0 15.0 15.0 15.0 15.0 15.0 15.0 15.0 15.0 15.0 15.0 15.0
15.0 15.0 15.0 15.0 15.0 15.0 15.0 14.9 15.0 15.0 15.0 15.0 14.9 3.8 9.3 7.7 7.7 9.1 15.0 15.0 9.7 15.0 15.0 15.0 15.0 15.0 15.0 15.0 15.0 15.0 15.0 15.0 15.0 15.0 15.0 15.0 15.0 15.0 15.0 15.0 15.0 15.0 15.0 15.0 15.0 15.0 15.0
15.0 15.0 15.0 15.0 15.0 15.0 15.0 15.0 15.0 15.0 15.0 15.0 15.0 11.1 10.1 7.9 5.5 6.3 15.0 15.0 13.1 15.0 15.0 12.9 15.0 4.7 15.0 15.0 15.0 15.0 15.0 15.0 15.0 15.0 15.0 15.0 15.0 15.0 15.0 15.0 12.2 15.0 15.0 15.0 15.0 15.0 15.0
15.0 15.0 15.0 15.0 15.0 15.0 15.0 15.0 14.8 10.3 15.0 15.0 15.0 15.0 4.2 6.4 4.8 9.5 15.0 15.0 15.0 15.0 0.9 14.9 15.0 15.0 15.0 15.0 15.0 15.0 15.0 15.0 15.0 15.0 15.0 15.0 15.0 15.0 15.0 15.0 15.0 15.0 15.0 15.0 15.0 15.0 15.0
15.0 15.0 15.0 15.0 15.0 15.0 15.0 15.0 13.6 15.0 11.6 15.0 14.2 15.0 10.7 15.0 4.9 10.4 15.0 15.0 15.0 15.0 7.0 15.0 15.0 15.0 15.0 15.0 15.0 15.0 15.0 15.0 15.0 15.0 15.0 15.0 9.6 15.0 15.0 15.0 15.0 15.0 15.0 15.0 15.0 15.0 15.0
15.0 15.0 13.9 15.0 15.0 15.0 15.0 11.1 9.0 11.2 12.2 14.5 12.6 15.0 13.8 5.0 3.0 3.0 15.0 15.0 15.0 15.0 15.0 15.0 15.0 15.0 15.0 15.0 15.0 15.0 15.0 15.0 15.0 15.0 15.0 13.3 15.0 15.0 15.0 15.0 15.0 15.0 15.0 15.0 15.0 15.0 15.0
15.0 15.0 14.5 15.0 15.0 15.0 15.0 15.0 9.5 8.1 7.7 10.1 15.0 15.0 15.0 3.4 0.1 4.4 12.6 15.0 15.0 15.0 15.0 15.0 7.1 9.3 15.0 15.0 15.0 15.0 15.0 15.0 15.0 15.0 15.0 14.4 15.0 15.0 15.0 15.0 15.0 15.0 15.0 15.0 15.0 11.8 7.1
15.0 15.0 12.4 15.0 10.9 13.9 7.8 9.4 6.4 11.7 12.2 15.0 15.0 15.0 15.0 6.4 0.9 4.6 13.6 14.3 15.0 15.0 3.3 15.0 15.0 15.0 15.0 15.0 15.0 15.0 15.0 15.0 15.0 15.0 15.0 15.0 15.0 15.0 15.0 15.0 15.0 15.0 15.0 15.0 15.0 15.0 0.9
15.0 15.0 15.0 15.0 15.0 14.2 15.0 8.1 15.0 14.9 14.4 15.0 15.0 15.0 15.0 15.0 0.2 4.7 15.0 15.0 15.0 15.0 0.3 11.8 15.0 15.0 15.0 15.0 15.0 15.0 15.0 15.0 15.0 15.0 15.0 15.0 15.0 15.0 15.0 15.0 15.0 15.0 15.0 10.1 5.1 0.2 0.1
15.0 15.0 15.0 14.8 12.5 13.4 11.7 15.0 14.9 3.9 5.2 5.5 15.0 15.0 15.0 15.0 0.7 4.8 10.4 15.0 4.2 2.2 15.0 9.9 14.2 15.0 15.0 15.0 15.0 15.0 15.0 5.4 0.1 0.0 0.1 11.3 0.2 15.0 15.0 15.0 15.0 2.8 0.0 0.1 0.1 0.0 3.4
14.3 15.0 15.0 15.0 12.5 15.0 15.0 15.0 4.4 4.8 6.1 4.3 4.2 15.0 15.0 15.0 2.1 3.4 6.1 15.0 10.9 15.0 15.0 15.0 15.0 15.0 15.0 15.0 15.0 15.0 15.0 8.7 15.0 15.0 0.0 0.6 7.4 3.6 15.0 15.0 15.0 13.8 9.3 0.2 0.2 13.3 15.0
15.0 13.4 15.0 13.4 15.0 14.8 15.0 15.0 5.5 6.6 9.4 8.2 6.6 12.8 10.2 7.2 1.9 2.8 6.9 0.1 15.0 15.0 15.0 15.0 15.0 15.0 14.9 15.0 15.0 15.0 15.0 15.0 15.0 15.0 0.0 1.4 9.8 15.0 15.0 15.0 15.0 0.0 0.1 8.1 0.1 0.1 0.1
9.0 13.4 14.8 12.0 11.2 15.0 15.0 15.0 14.3 6.3 3.6 10.0 7.9 11.1 12.8 2.6 3.0 2.8 9.3 15.0 15.0 15.0 15.0 15.0 15.0 15.0 15.0 15.0 15.0 15.0 15.0 15.0 15.0 15.0 15.0 15.0 0.8 15.0 15.0 13.8 12.6 6.4 2.5 0.1 0.0 0.1 0.1
14.7 14.2 12.0 15.0 15.0 15.0 15.0 15.0 15.0 7.1 2.9 4.8 0.1 9.6 6.9 1.7 3.2 1.5 0.1 15.0 15.0 15.0 15.0 15.0 15.0 15.0 15.0 15.0 15.0 15.0 14.7 15.0 15.0 15.0 15.0 15.0 7.1 12.3 9.0 1.1 15.0 0.1 0.0 0.0 3.7 0.2 4.5
15.0 10.7 10.8 10.9 15.0 15.0 15.0 14.9 14.6 14.7 4.6 5.1 8.6 0.9 7.4 4.8 0.1 0.2 0.1 15.0 15.0 15.0 15.0 15.0 15.0 15.0 15.0 15.0 15.0 3.5 15.0 15.0 15.0 15.0 15.0 15.0 3.4 0.5 15.0 15.0 15.0 15.0 15.0 14.3 12.8 15.0 15.0
15.0 10.8 12.1 13.5 14.2 15.0 15.0 15.0 15.0 11.8 5.7 0.2 7.6 4.4 2.7 14.0 0.0 0.0 8.8 15.0 15.0 15.0 15.0 15.0 15.0 15.0 15.0 10.5 0.0 5.7 15.0 15.0 15.0 15.0 15.0 15.0 0.1 0.1 14.3 6.8 11.9 0.0 12.2 11.4 14.1 11.9 2.6
14.8 11.9 9.1 11.3 13.1 15.0 15.0 15.0 15.0 12.1 15.0 0.8 14.2 0.0 0.1 5.3 12.8 15.0 15.0 15.0 11.7 15.0 15.0 15.0 15.0 15.0 15.0 0.1 8.2 0.2 15.0 15.0 15.0 15.0 15.0 15.0 0.3 13.6 2.6 13.5 0.0 0.0 12.9 0.1 0.0 0.1 3.3
15.0 15.0 12.1 8.4 15.0 15.0 15.0 15.0 15.0 7.9 11.2 0.3 13.5 0.1 10.5 0.0 0.1 15.0 15.0 15.0 15.0 15.0 15.0 15.0 9.5 14.6 2.1 0.0 0.1 0.1 15.0 15.0 15.0 15.0 15.0 11.1 0.0 0.1 4.9 14.7 1.1 0.0 0.0 0.1 0.0 0.4 0.1
14.9 12.0 15.0 13.3 12.2 15.0 15.0 15.0 15.0 8.4 14.9 0.8 15.0 6.7 15.0 15.0 15.0 15.0 15.0 14.7 3.1 15.0 15.0 15.0 0.1 14.9 13.6 0.0 15.0 15.0 15.0 15.0 15.0 15.0 15.0 11.4 0.0 0.0 0.1 8.5 0.0 0.0 0.0 0.0 0.0 0.2 0.1
15.0 13.5 11.7 14.5 15.0 15.0 15.0 15.0 15.0 10.4 5.7 12.0 10.7 5.7 13.2 3.4 15.0 8.1 0.1 15.0 15.0 15.0 15.0 15.0 15.0 1.0 0.1 0.9 15.0 15.0 15.0 15.0 15.0 15.0 0.9 0.0 0.0 0.0 1.6 3.9 0.0 0.0 0.0 0.0 0.0 4.4 3.6
15.0 12.9 13.4 12.9 15.0 15.0 15.0 15.0 15.0 14.9 5.3 0.9 4.2 0.2 7.1 0.1 13.7 15.0 15.0 15.0 15.0 15.0 15.0 15.0 15.0 6.8 13.1 15.0 15.0 15.0 15.0 15.0 15.0 15.0 15.0 0.0 0.0 0.0 0.0 0.0 0.1 5.1 6.8 13.8 10.6 15.0 15.0
15.0 14.6 9.6 13.6 15.0 15.0 15.0 15.0 15.0 14.4 8.9 6.6 7.9 0.1 7.4 15.0 15.0 15.0 15.0 14.8 15.0 15.0 15.0 14.5 15.0 15.0 11.6 15.0 15.0 3.2 14.7 4.1 15.0 15.0 15.0 15.0 5.9 0.0 0.0 0.1 7.5 15.0 15.0 0.5 0.0 0.5 15.0
15.0 14.0 13.1 13.6 12.6 15.0 15.0 15.0 15.0 15.0 15.0 15.0 15.0 9.1 0.1 15.0 6.4 15.0 15.0 15.0 15.0 14.4 0.1 11.7 13.4 14.6 12.9 15.0 15.0 10.5 1.5 11.1 7.9 15.0 15.0 15.0 15.0 0.0 0.0 0.1 0.1 15.0 15.0 15.0 15.0 15.0 15.0
13.9 15.0 14.6 14.6 15.0 15.0 15.0 15.0 15.0 15.0 15.0 15.0 15.0 3.2 0.1 15.0 15.0 15.0 15.0 15.0 15.0 15.0 5.9 9.7 14.0 11.5 13.6 0.9 9.7 0.0 15.0 12.1 6.8 15.0 9.6 0.3 7.2 0.0 0.8 4.2 15.0 15.0 15.0 15.0 15.0 15.0 15.0
15.0 14.5 12.2 14.7 15.0 15.0 15.0 15.0 15.0 15.0 15.0 15.0 8.8 15.0 0.1 14.5 15.0 15.0 15.0 15.0 5.4 12.2 2.6 6.9 3.8 2.5 2.3 15.0 0.5 6.3 15.0 15.0 15.0 15.0 15.0 15.0 2.3 9.6 15.0 0.6 15.0 15.0 15.0 15.0 15.0 15.0 15.0
15.0 15.0 11.9 14.4 15.0 15.0 15.0 15.0 15.0 15.0 15.0 15.0 4.3 15.0 15.0 5.7 15.0 15.0 15.0 15.0 15.0 14.8 8.1 2.7 8.5 5.9 14.9 13.5 1.3 14.5 15.0 15.0 15.0 15.0 15.0 15.0 15.0 15.0 14.9 13.4 15.0 15.0 15.0 15.0 15.0 15.0 15.0